Location: Marcé
(47.5801°N, 0.3280°W)
Time: 07:00:07
(UTC+01:00)

Envisat - Pass Details

Date: 22 October 2021
Orbit: 764 x 766 km, 98.2° (Epoch: 04 December)

Event Time Altitude Azimuth Distance (km) Brightness Sun altitude
Rises 07:31:02 0° 11° (NNE) 3,245 6.3 -10.7°
Reaches altitude 10° 07:33:21 10° 10° (N) 2,314 5.6 -10.3°
Maximum altitude 07:38:26 71° 287° (WNW) 814 3.0 -9.4°
Drops below altitude 10° 07:43:28 10° 205° (SSW) 2,296 5.3 -8.6°
Sets 07:45:45 0° 203° (SSW) 3,218 6.1 -8.2°
